Tokyo, Japan

2:18 AM JST on 五月 30, 2017 (GMT +0900)
Tokyo (Haneda) International

天気 に付いての歴史 RJTT - 五月, 2017

Change the Weather History Date:

金曜日, 五月 19, 2017

  Actual Average Record
Temperature  
平均温度 68 °F -  
最高温度 77 °F 73 °F 77 °F (2005)
最低温度 60 °F 62 °F 44 °F (1999)
Cooling Degree Days 4    
Growing Degree Days 18 (Base 50)    
Moisture  
露点温度 60 °F    
Average Humidity 81    
Maximum Humidity 100    
Minimum Humidity 47    
降水確率  
降水確率 0.00 インチ - - ()
海面圧  
海面圧 30.00 インチ    
 
風速 6 Mph ()    
最大風速 18 Mph    
Max Gust Speed -    
視程 5.0 マイル    
イベント      
Averages and records for this station are not official NWS values.
T = Trace of Precipitation, MM = Missing Value Source: Averaged Metar Reports

Daily Weather History Graph

Daily Weather History Graph

Search for Another Location

Airport or City:

Trip Planner

Search our weather history database for the weather conditions in past years. The results will help you decide how hot, cold, wet, or windy it might be!

Date:

天文

May. 19, 2017 入り
実時間 4:33 AM JST 6:41 PM JST
常用薄明 4:04 AM JST 7:10 PM JST
航海薄明 3:30 AM JST 7:45 PM JST
天文薄明 2:52 AM JST 8:23 PM JST
12:16 AM JST (5/19) 11:23 AM JST (5/19)
可視光の長さ 15h 05m
可照時間
14h 08m
十八夜, 49% of the Moon is Illuminated
5月 19
十八夜
5月 26
新しい
6月 1
上弦
6月 9
満月
6月 17
第 4 四半期

Hourly Weather History & Observations

時間 (JST) 温度 露点温度 湿度 気圧 視程 Wind Dir 風速 突風の速度 Precip イベント 現在の気象状況
12:00 AM 62.6 °F 60.8 °F 94% 30.01 インチ 6.2 マイル 2.3 Mph - N/A   やや曇
12:30 AM 62.6 °F 60.8 °F 94% 30.01 インチ 6.2 マイル 南東 2.3 Mph - N/A   やや曇
1:00 AM 62.6 °F 60.8 °F 94% 29.98 インチ 6.2 マイル 南東 2.3 Mph - N/A   所により曇
1:30 AM 62.6 °F 60.8 °F 94% 29.98 インチ 6.2 マイル 南東 3.5 Mph - N/A   所により曇
2:00 AM 62.6 °F 60.8 °F 94% 29.98 インチ 6.2 マイル 南東 2.3 Mph - N/A   所により曇
2:30 AM 60.8 °F 60.8 °F 100% 30.01 インチ 5.6 マイル 南南東 2.3 Mph - N/A   所により曇
3:00 AM 60.8 °F 60.8 °F 100% 30.01 インチ 5.6 マイル 変数 1.2 Mph - N/A   やや曇
3:30 AM 62.6 °F 60.8 °F 94% 30.01 インチ 5.6 マイル 西 2.3 Mph - N/A   だいたい曇
3:40 AM 62.6 °F 60.8 °F 94% 30.01 インチ 5.6 マイル 北西 2.3 Mph - N/A   やや曇
4:00 AM 62.6 °F 60.8 °F 94% 30.01 インチ 4.3 マイル 北北西 2.3 Mph - N/A   所により曇
4:05 AM 62.6 °F 60.8 °F 94% 30.01 インチ 3.1 マイル 北北西 3.5 Mph - N/A   所により曇
4:15 AM 60.8 °F 60.8 °F 100% 30.01 インチ 2.8 マイル 北西 3.5 Mph - N/A   所により曇
4:30 AM 60.8 °F 60.8 °F 100% 30.01 インチ 2.8 マイル 変数 2.3 Mph - N/A   所により曇
4:34 AM 60.8 °F 60.8 °F 100% 30.01 インチ 3.7 マイル 変数 2.3 Mph - N/A   所により曇
5:00 AM 60.8 °F 60.8 °F 100% 30.01 インチ 3.7 マイル 西 2.3 Mph - N/A   所により曇
5:18 AM 60.8 °F 60.8 °F 100% 30.01 インチ 3.1 マイル 西 4.6 Mph - N/A   所により曇
5:30 AM 60.8 °F 60.8 °F 100% 30.01 インチ 3.1 マイル 西 5.8 Mph - N/A   所により曇
5:46 AM 62.6 °F 60.8 °F 94% 30.01 インチ 2.8 マイル 西 3.5 Mph - N/A   所により曇
6:00 AM 62.6 °F 60.8 °F 94% 30.01 インチ 2.8 マイル 西南西 5.8 Mph - N/A   所により曇
6:30 AM 62.6 °F 60.8 °F 94% 30.04 インチ 3.7 マイル 西 3.5 Mph - N/A   所により曇
7:00 AM 64.4 °F 60.8 °F 88% 30.04 インチ 3.7 マイル 変数 1.2 Mph - N/A   所により曇
7:30 AM 64.4 °F 60.8 °F 88% 30.04 インチ 3.7 マイル 3.5 Mph - N/A   やや曇
8:00 AM 64.4 °F 62.6 °F 94% 30.04 インチ 3.7 マイル 5.8 Mph - N/A   所により曇
8:11 AM 64.4 °F 62.6 °F 94% 30.04 インチ 3.1 マイル 5.8 Mph - N/A   所により曇
8:20 AM 66.2 °F 62.6 °F 88% 30.04 インチ 2.8 マイル 6.9 Mph - N/A   所により曇
8:30 AM 66.2 °F 62.6 °F 88% 30.04 インチ 2.8 マイル 5.8 Mph - N/A   所により曇
8:44 AM 66.2 °F 62.6 °F 88% 30.04 インチ 3.1 マイル 5.8 Mph - N/A   所により曇
9:00 AM 66.2 °F 62.6 °F 88% 30.04 インチ 3.1 マイル 東南東 6.9 Mph - N/A   所により曇
9:30 AM 66.2 °F 62.6 °F 88% 30.04 インチ 3.1 マイル 東南東 8.1 Mph - N/A   所により曇
10:00 AM 68.0 °F 62.6 °F 83% 30.04 インチ - 東南東 6.9 Mph - N/A   所により曇
10:30 AM 69.8 °F 62.6 °F 78% 30.04 インチ - 東南東 8.1 Mph - N/A   所により曇
10:50 AM 69.8 °F 60.8 °F 73% 30.04 インチ 4.3 マイル 東南東 8.1 Mph - N/A   所により曇
11:00 AM 69.8 °F 60.8 °F 73% 30.04 インチ 4.3 マイル 東南東 8.1 Mph - N/A   所により曇
11:30 AM 73.4 °F 62.6 °F 69% 30.01 インチ 6.2 マイル 東南東 10.4 Mph - N/A   所により曇
12:00 PM 73.4 °F 60.8 °F 65% 30.01 インチ 6.2 マイル 南東 10.4 Mph - N/A   所により曇
12:30 PM 75.2 °F 59.0 °F 57% 30.01 インチ 6.2 マイル 南南東 11.5 Mph - N/A   所により曇
1:00 PM 75.2 °F 59.0 °F 57% 29.98 インチ 6.2 マイル 南南東 13.8 Mph - N/A   所により曇
1:30 PM 77.0 °F 57.2 °F 50% 29.98 インチ 6.2 マイル 12.7 Mph - N/A   所により曇
2:00 PM 77.0 °F 57.2 °F 50% 29.98 インチ 6.2 マイル 南南東 11.5 Mph - N/A   所により曇
2:30 PM 77.0 °F 57.2 °F 50% 29.98 インチ 6.2 マイル 12.7 Mph - N/A   所により曇
3:00 PM 77.0 °F 57.2 °F 50% 29.95 インチ 6.2 マイル 13.8 Mph - N/A   所により曇
3:30 PM 77.0 °F 55.4 °F 47% 29.95 インチ 6.2 マイル 13.8 Mph - N/A   所により曇
4:00 PM 75.2 °F 55.4 °F 50% 29.95 インチ 6.2 マイル 16.1 Mph - N/A   所により曇
4:30 PM 75.2 °F 55.4 °F 50% 29.95 インチ 6.2 マイル 南南西 16.1 Mph - N/A   所により曇
5:00 PM 75.2 °F 57.2 °F 53% 29.95 インチ 6.2 マイル 南南西 15.0 Mph - N/A   所により曇
5:30 PM 73.4 °F 57.2 °F 57% 29.95 インチ 6.2 マイル 18.4 Mph - N/A   所により曇
6:00 PM 71.6 °F 55.4 °F 57% 29.98 インチ 6.2 マイル 南南西 17.3 Mph - N/A   所により曇
6:30 PM 69.8 °F 59.0 °F 68% 29.98 インチ - 17.3 Mph - N/A  
7:00 PM 68.0 °F 60.8 °F 78% 29.98 インチ 6.2 マイル 15.0 Mph - N/A   所により曇
7:30 PM 68.0 °F 60.8 °F 78% 29.98 インチ 6.2 マイル 18.4 Mph - N/A   所により曇
8:00 PM 68.0 °F 62.6 °F 83% 29.98 インチ 6.2 マイル 18.4 Mph - N/A   所により曇
8:30 PM 68.0 °F 62.6 °F 83% 30.01 インチ 6.2 マイル 15.0 Mph - N/A   所により曇
9:00 PM 68.0 °F 62.6 °F 83% 30.01 インチ 6.2 マイル 12.7 Mph - N/A   所により曇
9:30 PM 66.2 °F 62.6 °F 88% 30.01 インチ 6.2 マイル 13.8 Mph - N/A   所により曇
10:00 PM 66.2 °F 60.8 °F 83% 30.01 インチ - 13.8 Mph - N/A  
10:30 PM 68.0 °F 59.0 °F 73% 30.01 インチ 6.2 マイル 15.0 Mph - N/A   所により曇
11:00 PM 66.2 °F 60.8 °F 83% 30.01 インチ 6.2 マイル 13.8 Mph - N/A   所により曇
11:30 PM 66.2 °F 62.6 °F 88% 30.01 インチ 6.2 マイル 12.7 Mph - N/A   所により曇